Location: Friaudour
(46.0460°N, 1.2873°E)
Time: 20:37:44
(UTC+00:00)

Cosmos 192 - Pass Details

Date: 14 July 2020
Orbit: 702 x 712 km, 74.0° (Epoch: 14 August)

Event Time Altitude Azimuth Distance (km) Brightness Sun altitude
Rises 02:42:10 0° 334° (NNW) 3,103 8.0 -13.1°
Reaches altitude 10° 02:44:32 10° 330° (NNW) 2,179 7.1 -12.8°
Maximum altitude 02:49:18 53° 254° (WSW) 863 4.5 -12.3°
Drops below altitude 10° 02:54:02 10° 178° (S) 2,162 6.4 -11.8°
Enters shadow 02:54:50 - 176° (S) 2,467 6.7 -11.7°
